,,,PA_Meas_PMT16A,,PR_Meas_QMR101_102,,RH_Meas_QMH101,,SR_Meas_QMS101,,TA_Meas_QMH101,,GenWind,,GenWind,
date,time,status,PA,status,PR,status,RH,status,SR,status,TA,status,DirAvg,status,SpdAvg,
2011-02-25, 00:00:04,VALID,999.702,VALID,0,VALID,91.5478,VALID,0,VALID,23.1744,VALID,51,VALID,0,
2011-02-25, 00:01:04,VALID,999.674,VALID,0,VALID,91.5936,VALID,0.112286,VALID,23.1726,VALID,51,VALID,0,
2011-02-25, 00:02:04,VALID,999.677,VALID,0,VALID,91.6165,VALID,0,VALID,23.1939,VALID,51,VALID,0,
2011-02-25, 00:03:04,VALID,999.648,VALID,0,VALID,91.6317,VALID,0,VALID,23.1531,VALID,51,VALID,0,
2011-02-25, 00:04:04,VALID,999.608,VALID,0,VALID,91.6623,VALID,0,VALID,23.1744,VALID,51,VALID,0,
2011-02-25, 00:05:04,VALID,999.612,VALID,0,VALID,91.6851,VALID,0.112286,VALID,23.1336,VALID,51,VALID,0,
2011-02-25, 00:06:04,VALID,999.595,VALID,0,VALID,91.6851,VALID,0,VALID,23.1549,VALID,51,VALID,0,
2011-02-25, 00:07:04,VALID,999.558,VALID,0,VALID,91.7157,VALID,0,VALID,23.1141,VALID,51,VALID,0,
2011-02-25, 00:08:04,VALID,999.555,VALID,0,VALID,91.708,VALID,0,VALID,23.1159,VALID,51,VALID,0,
2011-02-25, 00:09:04,VALID,999.511,VALID,0,VALID,91.6851,VALID,0,VALID,23.1354,VALID,51,VALID,0,
2011-02-25, 00:10:04,VALID,999.471,VALID,0,VALID,91.6623,VALID,0,VALID,23.1159,VALID,51,VALID,0.0691406,
2011-02-25, 00:11:04,VALID,999.449,VALID,0,VALID,91.6699,VALID,0,VALID,23.1159,VALID,51,VALID,0.150391,
2011-02-25, 00:12:04,VALID,999.404,VALID,0,VALID,91.6394,VALID,0,VALID,23.0946,VALID,51,VALID,0.157422,
2011-02-25, 00:13:04,VALID,999.414,VALID,0,VALID,91.5783,VALID,0,VALID,23.0964,VALID,51,VALID,0.343359,
2011-02-25, 00:14:04,VALID,999.36,VALID,0,VALID,91.5783,VALID,0,VALID,23.1371,VALID,51,VALID,0.254687,
2011-02-25, 00:15:04,VALID,999.355,VALID,0,VALID,91.5478,VALID,0,VALID,23.1354,VALID,51,VALID,0.303125,
2011-02-25, 00:16:04,VALID,999.342,VALID,0,VALID,91.5097,VALID,0,VALID,23.1762,VALID,51,VALID,0.421484,
2011-02-25, 00:17:04,VALID,999.349,VALID,0,VALID,91.4257,VALID,0,VALID,23.1549,VALID,51,VALID,0.359766,
2011-02-25, 00:18:04,VALID,999.365,VALID,0,VALID,91.3189,VALID,0,VALID,23.1939,VALID,51,VALID,0.191016,
2011-02-25, 00:19:04,VALID,999.328,VALID,0,VALID,91.1587,VALID,0,VALID,23.1939,VALID,51,VALID,0,
2011-02-25, 00:20:04,VALID,999.343,VALID,0,VALID,91.0137,VALID,0,VALID,23.1957,VALID,51,VALID,0.389062,
2011-02-25, 00:21:04,VALID,999.318,VALID,0,VALID,90.9603,VALID,0,VALID,23.1744,VALID,51,VALID,0.885547,
2011-02-25, 00:22:04,VALID,999.303,VALID,0,VALID,90.968,VALID,0,VALID,23.1957,VALID,51,VALID,0.710938,
2011-02-25, 00:23:04,VALID,999.266,VALID,0,VALID,90.8993,VALID,0,VALID,23.1939,VALID,71,VALID,0.529688,
2011-02-25, 00:24:04,VALID,999.251,VALID,0,VALID,90.7543,VALID,0,VALID,23.2152,VALID,71,VALID,0.439453,
2011-02-25, 00:25:04,VALID,999.202,VALID,0,VALID,90.6551,VALID,0,VALID,23.1744,VALID,71,VALID,0.078125,
2011-02-25, 00:26:04,VALID,999.181,VALID,0,VALID,90.6323,VALID,0,VALID,23.1549,VALID,71,VALID,0,
2011-02-25, 00:27:04,VALID,999.192,VALID,0,VALID,90.6246,VALID,0,VALID,23.1354,VALID,71,VALID,0,
2011-02-25, 00:28:04,VALID,999.151,VALID,0,VALID,90.5941,VALID,0,VALID,23.1141,VALID,71,VALID,0,
2011-02-25, 00:29:04,VALID,999.121,VALID,0,VALID,90.6704,VALID,0,VALID,23.1141,VALID,71,VALID,0,
2011-02-25, 00:30:04,VALID,999.096,VALID,0,VALID,90.8001,VALID,0,VALID,23.1354,VALID,71,VALID,0,
2011-02-25, 00:31:04,VALID,999.08,VALID,0,VALID,90.884,VALID,0,VALID,23.0751,VALID,71,VALID,0.0550781,
2011-02-25, 00:32:04,VALID,999.081,VALID,0,VALID,90.9832,VALID,0.112286,VALID,23.0946,VALID,71,VALID,0.248047,
2011-02-25, 00:33:04,VALID,999.079,VALID,0,VALID,91.0137,VALID,0.112286,VALID,23.0946,VALID,71,VALID,0,
2011-02-25, 00:34:04,VALID,999.07,VALID,0,VALID,91.0519,VALID,0,VALID,23.0751,VALID,71,VALID,0,
2011-02-25, 00:35:04,VALID,999.108,VALID,0,VALID,91.1206,VALID,0,VALID,23.0769,VALID,71,VALID,0,
2011-02-25, 00:36:04,VALID,999.158,VALID,0,VALID,91.174,VALID,0,VALID,23.0751,VALID,71,VALID,0,
2011-02-25, 00:37:04,VALID,999.153,VALID,0,VALID,91.2426,VALID,0.112286,VALID,23.0751,VALID,71,VALID,0,
2011-02-25, 00:38:04,VALID,999.181,VALID,0,VALID,91.2274,VALID,0,VALID,23.0556,VALID,71,VALID,0,
2011-02-25, 00:39:04,VALID,999.214,VALID,0,VALID,91.235,VALID,0,VALID,23.0378,VALID,71,VALID,0,
2011-02-25, 00:40:04,VALID,999.221,VALID,0,VALID,91.2579,VALID,0,VALID,23.0166,VALID,360,VALID,0.551172,
2011-02-25, 00:41:04,VALID,999.231,VALID,0,VALID,91.3189,VALID,0,VALID,22.9971,VALID,360,VALID,0.348828,
2011-02-25, 00:42:04,VALID,999.255,VALID,0,VALID,91.3494,VALID,0,VALID,22.9971,VALID,360,VALID,0.0433594,
2011-02-25, 00:43:04,VALID,999.273,VALID,0,VALID,91.3952,VALID,0,VALID,22.9793,VALID,360,VALID,0.117188,
2011-02-25, 00:44:04,VALID,999.268,VALID,0,VALID,91.441,VALID,0,VALID,22.9811,VALID,347,VALID,0.624609,
2011-02-25, 00:45:04,VALID,999.323,VALID,0,VALID,91.5249,VALID,0,VALID,22.9811,VALID,300,VALID,0.565234,
2011-02-25, 00:46:04,VALID,999.31,VALID,0,VALID,91.6165,VALID,0,VALID,22.9811,VALID,300,VALID,0.632813,
2011-02-25, 00:47:04,VALID,999.314,VALID,0,VALID,91.6699,VALID,0,VALID,22.9598,VALID,300,VALID,0.585156,
2011-02-25, 00:48:04,VALID,999.351,VALID,0,VALID,91.6928,VALID,0,VALID,22.9615,VALID,300,VALID,0.710156,
2011-02-25, 00:49:04,VALID,999.353,VALID,0,VALID,91.7538,VALID,0,VALID,22.9208,VALID,334,VALID,1.1082,
2011-02-25, 00:50:04,VALID,999.382,VALID,0,VALID,91.7462,VALID,0,VALID,22.903,VALID,334,VALID,0.766797,
2011-02-25, 00:51:04,VALID,999.355,VALID,0,VALID,91.8072,VALID,0,VALID,22.8623,VALID,334,VALID,0.639453,
2011-02-25, 00:52:04,VALID,999.399,VALID,0,VALID,91.853,VALID,0,VALID,22.8623,VALID,358,VALID,0.773828,
2011-02-25, 00:53:04,VALID,999.384,VALID,0,VALID,91.8683,VALID,0,VALID,22.8445,VALID,323,VALID,1.09883,
2011-02-25, 00:54:04,VALID,999.387,VALID,0,VALID,91.9369,VALID,0,VALID,22.8427,VALID,297,VALID,0.590234,
2011-02-25, 00:55:04,VALID,999.368,VALID,0,VALID,91.9827,VALID,0,VALID,22.8232,VALID,297,VALID,0.251172,
2011-02-25, 00:56:04,VALID,999.337,VALID,0,VALID,92.0514,VALID,0,VALID,22.8055,VALID,298,VALID,0.542969,
2011-02-25, 00:57:04,VALID,999.339,VALID,0,VALID,92.0666,VALID,0,VALID,22.8055,VALID,299,VALID,0.221875,
2011-02-25, 00:58:04,VALID,999.299,VALID,0,VALID,92.1124,VALID,0,VALID,22.7842,VALID,265,VALID,0.601953,
2011-02-25, 00:59:04,VALID,999.277,VALID,0,VALID,92.1582,VALID,0,VALID,22.8037,VALID,184,VALID,0.528125,
2011-02-25, 01:00:04,VALID,999.286,VALID,0,VALID,92.1887,VALID,0,VALID,22.8037,VALID,255,VALID,0.348047,
2011-02-25, 01:01:04,VALID,999.266,VALID,0,VALID,92.2268,VALID,0,VALID,22.8445,VALID,255,VALID,0.184766,
2011-02-25, 01:02:04,VALID,999.212,VALID,0,VALID,92.2421,VALID,0,VALID,22.8835,VALID,264,VALID,0.498047,
2011-02-25, 01:03:04,VALID,999.221,VALID,0,VALID,92.265,VALID,0,VALID,22.9615,VALID,272,VALID,1.48398,
2011-02-25, 01:04:04,VALID,999.231,VALID,0,VALID,92.3031,VALID,0,VALID,23.0769,VALID,266,VALID,0.539063,
2011-02-25, 01:05:04,VALID,999.223,VALID,0,VALID,92.265,VALID,0,VALID,23.1566,VALID,265,VALID,0.772656,
2011-02-25, 01:06:04,VALID,999.178,VALID,0,VALID,92.204,VALID,0,VALID,23.2152,VALID,245,VALID,0.506641,
2011-02-25, 01:07:04,VALID,999.14,VALID,0,VALID,92.1048,VALID,0,VALID,23.2737,VALID,241,VALID,0.841406,
2011-02-25, 01:08:04,VALID,999.101,VALID,0,VALID,91.9598,VALID,0,VALID,23.2915,VALID,225,VALID,0.824609,
2011-02-25, 01:09:04,VALID,999.068,VALID,0,VALID,91.7614,VALID,0,VALID,23.3518,VALID,220,VALID,1.10781,
2011-02-25, 01:10:04,VALID,999.049,VALID,0,VALID,91.5097,VALID,0,VALID,23.389,VALID,245,VALID,1.06055,
2011-02-25, 01:11:04,VALID,999.008,VALID,0,VALID,91.2426,VALID,0,VALID,23.4085,VALID,230,VALID,0.769922,
2011-02-25, 01:12:04,VALID,999.003,VALID,0,VALID,90.9603,VALID,0,VALID,23.428,VALID,224,VALID,0.969531,
2011-02-25, 01:13:04,VALID,998.995,VALID,0,VALID,90.6399,VALID,0,VALID,23.428,VALID,220,VALID,1.00859,
2011-02-25, 01:14:04,VALID,998.98,VALID,0,VALID,90.4263,VALID,0,VALID,23.4884,VALID,208,VALID,1.19492,
2011-02-25, 01:15:04,VALID,999.009,VALID,0,VALID,90.2431,VALID,0,VALID,23.4866,VALID,233,VALID,1.18867,
2011-02-25, 01:16:04,VALID,998.99,VALID,0,VALID,90.1134,VALID,0,VALID,23.5079,VALID,207,VALID,0.547266,
2011-02-25, 01:17:04,VALID,998.991,VALID,0,VALID,89.9914,VALID,0,VALID,23.4866,VALID,207,VALID,0.573828,
2011-02-25, 01:18:04,VALID,998.982,VALID,0,VALID,89.9456,VALID,0,VALID,23.4884,VALID,201,VALID,0.617969,
2011-02-25, 01:19:04,VALID,998.923,VALID,0,VALID,89.9151,VALID,0,VALID,23.5079,VALID,226,VALID,0.687891,
2011-02-25, 01:20:04,VALID,998.946,VALID,0,VALID,89.854,VALID,0,VALID,23.5079,VALID,204,VALID,0.249219,
2011-02-25, 01:21:04,VALID,998.93,VALID,0,VALID,89.7549,VALID,0,VALID,23.4884,VALID,204,VALID,0.353906,
2011-02-25, 01:22:04,VALID,998.907,VALID,0,VALID,89.7854,VALID,0,VALID,23.4866,VALID,204,VALID,0.256641,
2011-02-25, 01:23:04,VALID,998.901,VALID,0,VALID,89.7777,VALID,0,VALID,23.5079,VALID,204,VALID,0.284766,
2011-02-25, 01:24:04,VALID,998.92,VALID,0,VALID,89.732,VALID,0,VALID,23.4671,VALID,202,VALID,0.571484,
2011-02-25, 01:25:04,VALID,998.921,VALID,0,VALID,89.8006,VALID,0,VALID,23.4866,VALID,202,VALID,0.454297,
2011-02-25, 01:26:04,VALID,998.906,VALID,0,VALID,89.6786,VALID,0,VALID,23.4671,VALID,96,VALID,1.20273,
2011-02-25, 01:27:04,VALID,998.906,VALID,0,VALID,89.5946,VALID,0,VALID,23.4688,VALID,96,VALID,1.35703,
2011-02-25, 01:28:04,VALID,998.933,VALID,0,VALID,89.5489,VALID,0,VALID,23.4458,VALID,87,VALID,1.61914,
2011-02-25, 01:29:04,VALID,998.97,VALID,0,VALID,89.4497,VALID,0,VALID,23.389,VALID,71,VALID,1.79023,
2011-02-25, 01:30:04,VALID,998.974,VALID,0,VALID,89.3581,VALID,0,VALID,23.2915,VALID,60,VALID,1.85586,
2011-02-25, 01:31:04,VALID,998.993,VALID,0,VALID,89.5946,VALID,0,VALID,23.1549,VALID,56,VALID,1.76484,
2011-02-25, 01:32:04,VALID,999.063,VALID,0,VALID,89.999,VALID,0,VALID,23.0556,VALID,58,VALID,1.73203,
2011-02-25, 01:33:04,VALID,999.067,VALID,0,VALID,90.3652,VALID,0,VALID,22.9988,VALID,57,VALID,1.63555,
2011-02-25, 01:34:04,VALID,999.019,VALID,0,VALID,90.6551,VALID,0,VALID,22.9385,VALID,61,VALID,1.84609,
2011-02-25, 01:35:04,VALID,999.043,VALID,0,VALID,90.9603,VALID,0.112286,VALID,22.9385,VALID,62,VALID,1.93203,
2011-02-25, 01:36:04,VALID,998.994,VALID,0,VALID,91.174,VALID,0,VALID,22.9403,VALID,49,VALID,1.56016,
2011-02-25, 01:37:04,VALID,998.98,VALID,0,VALID,91.3037,VALID,0.112286,VALID,22.9385,VALID,54,VALID,1.45742,
2011-02-25, 01:38:04,VALID,998.965,VALID,0,VALID,91.3647,VALID,0,VALID,22.9598,VALID,61,VALID,1.20469,
2011-02-25, 01:39:04,VALID,998.931,VALID,0,VALID,91.4563,VALID,0,VALID,22.9598,VALID,83,VALID,0.890625,
2011-02-25, 01:40:04,VALID,998.876,VALID,0,VALID,91.4944,VALID,0.112286,VALID,22.9385,VALID,64,VALID,1.12539,
2011-02-25, 01:41:04,VALID,998.835,VALID,0,VALID,91.5631,VALID,0,VALID,22.9581,VALID,90,VALID,1.60703,
2011-02-25, 01:42:04,VALID,998.802,VALID,0,VALID,91.6088,VALID,0,VALID,22.9971,VALID,83,VALID,0.677734,
2011-02-25, 01:43:04,VALID,998.769,VALID,0,VALID,91.5707,VALID,0,VALID,23.0201,VALID,116,VALID,0.719922,
2011-02-25, 01:44:04,VALID,998.691,VALID,0,VALID,91.5478,VALID,0,VALID,23.0183,VALID,112,VALID,1.21953,
2011-02-25, 01:45:04,VALID,998.675,VALID,0,VALID,91.4791,VALID,0,VALID,23.0396,VALID,105,VALID,1.10273,
2011-02-25, 01:46:04,VALID,998.668,VALID,0,VALID,91.4486,VALID,0,VALID,23.0183,VALID,106,VALID,1.59258,
2011-02-25, 01:47:04,VALID,998.644,VALID,0,VALID,91.4257,VALID,0,VALID,23.0573,VALID,127,VALID,1.11016,
2011-02-25, 01:48:04,VALID,998.674,VALID,0,VALID,91.3266,VALID,0,VALID,23.0769,VALID,135,VALID,0.340625,
2011-02-25, 01:49:04,VALID,998.658,VALID,0,VALID,91.1816,VALID,0,VALID,23.0769,VALID,108,VALID,0.826172,
2011-02-25, 01:50:04,VALID,998.668,VALID,0,VALID,91.0977,VALID,0,VALID,23.0964,VALID,108,VALID,0.71875,
2011-02-25, 01:51:04,VALID,998.674,VALID,0,VALID,91.0061,VALID,0,VALID,23.0964,VALID,98,VALID,1.91328,
2011-02-25, 01:52:04,VALID,998.661,VALID,0,VALID,90.9298,VALID,0,VALID,23.1176,VALID,99,VALID,1.71523,
2011-02-25, 01:53:04,VALID,998.639,VALID,0,VALID,90.8917,VALID,0,VALID,23.1159,VALID,101,VALID,2.23594,
2011-02-25, 01:54:04,VALID,998.655,VALID,0,VALID,90.8611,VALID,0,VALID,23.1566,VALID,97,VALID,2.02461,
2011-02-25, 01:55:04,VALID,998.685,VALID,0,VALID,90.762,VALID,0,VALID,23.1159,VALID,90,VALID,1.60898,
2011-02-25, 01:56:04,VALID,998.683,VALID,0,VALID,90.7085,VALID,0,VALID,23.1159,VALID,81,VALID,1.30547,
2011-02-25, 01:57:04,VALID,998.68,VALID,0,VALID,90.6399,VALID,0,VALID,23.1371,VALID,78,VALID,0.943359,
2011-02-25, 01:58:04,VALID,998.692,VALID,0,VALID,90.5941,VALID,0,VALID,23.0981,VALID,78,VALID,0.382813,
2011-02-25, 01:59:04,VALID,998.669,VALID,0,VALID,90.5712,VALID,0,VALID,23.0573,VALID,78,VALID,0.362109,
2011-02-25, 02:00:04,VALID,998.675,VALID,0,VALID,90.5712,VALID,0,VALID,23.0591,VALID,69,VALID,0.135547,
2011-02-25, 02:01:04,VALID,998.652,VALID,0,VALID,90.617,VALID,0,VALID,23.0396,VALID,69,VALID,0.015625,
2011-02-25, 02:02:04,VALID,998.658,VALID,0,VALID,90.6704,VALID,0,VALID,22.9793,VALID,68,VALID,0.584375,
2011-02-25, 02:03:04,VALID,998.601,VALID,0,VALID,90.7772,VALID,0,VALID,22.9811,VALID,58,VALID,0.613281,
2011-02-25, 02:04:04,VALID,998.605,VALID,0,VALID,90.7849,VALID,0,VALID,22.9598,VALID,97,VALID,0.536719,
2011-02-25, 02:05:04,VALID,998.593,VALID,0,VALID,90.7925,VALID,0,VALID,22.9403,VALID,97,VALID,0.395703,
2011-02-25, 02:06:04,VALID,998.6,VALID,0,VALID,90.8001,VALID,0,VALID,22.9615,VALID,97,VALID,0.128125,
2011-02-25, 02:07:04,VALID,998.602,VALID,0,VALID,90.8306,VALID,0,VALID,22.9615,VALID,42,VALID,0.379687,
2011-02-25, 02:08:04,VALID,998.603,VALID,0,VALID,90.8688,VALID,0,VALID,22.9403,VALID,69,VALID,0.808984,
2011-02-25, 02:09:04,VALID,998.588,VALID,0,VALID,90.9603,VALID,0,VALID,22.9811,VALID,73,VALID,0.701953,
2011-02-25, 02:10:04,VALID,998.579,VALID,0,VALID,91.0137,VALID,0,VALID,22.9793,VALID,65,VALID,0.537109,
2011-02-25, 02:11:04,VALID,998.555,VALID,0,VALID,91.029,VALID,0,VALID,23.0006,VALID,64,VALID,0.314063,
2011-02-25, 02:12:04,VALID,998.559,VALID,0,VALID,91.0137,VALID,0,VALID,23.0006,VALID,64,VALID,0.00820312,
2011-02-25, 02:13:04,VALID,998.547,VALID,0,VALID,90.9832,VALID,0,VALID,22.9793,VALID,64,VALID,0.102344,
2011-02-25, 02:14:04,VALID,998.511,VALID,0,VALID,91.029,VALID,0,VALID,22.9581,VALID,64,VALID,0.198437,
2011-02-25, 02:15:04,VALID,998.538,VALID,0,VALID,91.0519,VALID,0.112286,VALID,22.9988,VALID,64,VALID,0,
2011-02-25, 02:16:04,VALID,998.538,VALID,0,VALID,91.1511,VALID,0,VALID,22.9971,VALID,64,VALID,0.000390625,
2011-02-25, 02:17:04,VALID,998.533,VALID,0,VALID,91.1968,VALID,0,VALID,22.9971,VALID,14,VALID,0.508203,
2011-02-25, 02:18:04,VALID,998.562,VALID,0,VALID,91.2121,VALID,0,VALID,23.0183,VALID,14,VALID,0.253516,
2011-02-25, 02:19:04,VALID,998.547,VALID,0,VALID,91.2197,VALID,0.112286,VALID,23.0378,VALID,14,VALID,0.374609,
2011-02-25, 02:20:04,VALID,998.546,VALID,0,VALID,91.2197,VALID,0,VALID,23.0573,VALID,14,VALID,0.494531,
2011-02-25, 02:21:04,VALID,998.558,VALID,0,VALID,91.2045,VALID,0,VALID,23.0573,VALID,14,VALID,0.647656,
2011-02-25, 02:22:04,VALID,998.549,VALID,0,VALID,91.1129,VALID,0,VALID,23.0964,VALID,14,VALID,0.569922,
2011-02-25, 02:23:04,VALID,998.591,VALID,0,VALID,90.9985,VALID,0,VALID,23.0751,VALID,360,VALID,0.757813,
2011-02-25, 02:24:04,VALID,998.584,VALID,0,VALID,90.9222,VALID,0,VALID,23.0964,VALID,360,VALID,0.762109,
2011-02-25, 02:25:04,VALID,998.6,VALID,0,VALID,90.968,VALID,0,VALID,23.0964,VALID,360,VALID,0.705469,
2011-02-25, 02:26:04,VALID,998.583,VALID,0,VALID,91.029,VALID,0.112286,VALID,23.0556,VALID,1,VALID,0.784766,
2011-02-25, 02:27:04,VALID,998.581,VALID,0,VALID,91.0824,VALID,0.112286,VALID,23.0361,VALID,18,VALID,1.00547,
2011-02-25, 02:28:04,VALID,998.542,VALID,0,VALID,91.1282,VALID,0,VALID,23.0396,VALID,28,VALID,1.35938,
2011-02-25, 02:29:04,VALID,998.545,VALID,0,VALID,91.1892,VALID,0,VALID,23.0396,VALID,29,VALID,1.48438,
2011-02-25, 02:30:04,VALID,998.554,VALID,0,VALID,91.2655,VALID,0,VALID,23.0396,VALID,18,VALID,1.77656,
2011-02-25, 02:31:04,VALID,998.555,VALID,0,VALID,91.2731,VALID,0,VALID,23.0006,VALID,22,VALID,2.45273,
2011-02-25, 02:32:04,VALID,998.56,VALID,0,VALID,91.2579,VALID,0,VALID,23.0006,VALID,22,VALID,1.62109,
2011-02-25, 02:33:04,VALID,998.537,VALID,0,VALID,91.2655,VALID,0,VALID,23.0006,VALID,20,VALID,1.76641,
2011-02-25, 02:34:04,VALID,998.531,VALID,0,VALID,91.2121,VALID,0,VALID,22.9988,VALID,23,VALID,1.67891,
2011-02-25, 02:35:04,VALID,998.519,VALID,0,VALID,91.1587,VALID,0,VALID,23.0396,VALID,32,VALID,1.36641,
2011-02-25, 02:36:04,VALID,998.53,VALID,0,VALID,91.0977,VALID,0,VALID,23.0183,VALID,38,VALID,1.62773,
2011-02-25, 02:37:04,VALID,998.517,VALID,0,VALID,91.1053,VALID,0,VALID,23.0201,VALID,38,VALID,1.78828,
2011-02-25, 02:38:04,VALID,998.496,VALID,0,VALID,91.0671,VALID,0,VALID,23.0201,VALID,41,VALID,1.74727,
2011-02-25, 02:39:04,VALID,998.468,VALID,0,VALID,91.1053,VALID,0,VALID,22.9793,VALID,50,VALID,1.29531,
2011-02-25, 02:40:04,VALID,998.481,VALID,0,VALID,91.1511,VALID,0,VALID,22.9988,VALID,51,VALID,1.21406,
2011-02-25, 02:41:04,VALID,998.446,VALID,0,VALID,91.1663,VALID,0,VALID,23.0006,VALID,55,VALID,0.89375,
2011-02-25, 02:42:04,VALID,998.451,VALID,0,VALID,91.1816,VALID,0,VALID,23.0006,VALID,55,VALID,0.726563,
2011-02-25, 02:43:04,VALID,998.441,VALID,0,VALID,91.1434,VALID,0,VALID,23.0396,VALID,55,VALID,0.605859,
2011-02-25, 02:44:04,VALID,998.419,VALID,0,VALID,91.1206,VALID,0,VALID,22.9988,VALID,55,VALID,0.167187,
2011-02-25, 02:45:04,VALID,998.422,VALID,0,VALID,91.0748,VALID,0,VALID,23.0396,VALID,55,VALID,0.330469,
2011-02-25, 02:46:04,VALID,998.436,VALID,0,VALID,91.0366,VALID,0,VALID,23.0591,VALID,55,VALID,0.274219,
2011-02-25, 02:47:04,VALID,998.392,VALID,0,VALID,91.0137,VALID,0,VALID,23.0378,VALID,55,VALID,0.49375,
2011-02-25, 02:48:04,VALID,998.372,VALID,0,VALID,90.968,VALID,0,VALID,23.0378,VALID,55,VALID,0.324219,
2011-02-25, 02:49:04,VALID,998.358,VALID,0,VALID,90.9298,VALID,0,VALID,23.0378,VALID,55,VALID,0.332812,
2011-02-25, 02:50:04,VALID,998.386,VALID,0,VALID,90.8764,VALID,0,VALID,23.0591,VALID,55,VALID,0.246875,
2011-02-25, 02:51:04,VALID,998.373,VALID,0,VALID,90.8611,VALID,0,VALID,23.0378,VALID,55,VALID,0.309375,
2011-02-25, 02:52:04,VALID,998.362,VALID,0,VALID,90.823,VALID,0,VALID,23.0573,VALID,55,VALID,0.515234,
2011-02-25, 02:53:04,VALID,998.389,VALID,0,VALID,90.7467,VALID,0,VALID,23.0573,VALID,55,VALID,0.405859,
2011-02-25, 02:54:04,VALID,998.391,VALID,0,VALID,90.6475,VALID,0,VALID,23.0573,VALID,55,VALID,0.109375,
2011-02-25, 02:55:04,VALID,998.364,VALID,0,VALID,90.5788,VALID,0,VALID,23.0769,VALID,55,VALID,0,
2011-02-25, 02:56:04,VALID,998.312,VALID,0,VALID,90.6094,VALID,0,VALID,23.1176,VALID,55,VALID,0,
2011-02-25, 02:57:04,VALID,998.317,VALID,0,VALID,90.6323,VALID,0,VALID,23.1176,VALID,55,VALID,0,
2011-02-25, 02:58:04,VALID,998.313,VALID,0,VALID,90.6628,VALID,0,VALID,23.0981,VALID,55,VALID,0,
2011-02-25, 02:59:04,VALID,998.305,VALID,0,VALID,90.6017,VALID,0,VALID,23.0591,VALID,55,VALID,0,
2011-02-25, 03:00:04,VALID,998.323,VALID,0,VALID,90.6017,VALID,0,VALID,23.0786,VALID,55,VALID,0,
2011-02-25, 03:01:04,VALID,998.306,VALID,0,VALID,90.6017,VALID,0,VALID,23.0573,VALID,55,VALID,0.162891,
2011-02-25, 03:02:04,VALID,998.282,VALID,0,VALID,90.6475,VALID,0,VALID,23.0573,VALID,55,VALID,0.357812,
2011-02-25, 03:03:04,VALID,998.247,VALID,0,VALID,90.6551,VALID,0,VALID,23.0769,VALID,55,VALID,0.412109,
2011-02-25, 03:04:04,VALID,998.252,VALID,0,VALID,90.6551,VALID,0,VALID,23.0378,VALID,55,VALID,0.612891,
2011-02-25, 03:05:04,VALID,998.235,VALID,0,VALID,90.6551,VALID,0,VALID,23.0769,VALID,115,VALID,0.685156,
2011-02-25, 03:06:04,VALID,998.239,VALID,0,VALID,90.6399,VALID,0,VALID,23.0964,VALID,116,VALID,0.420312,
2011-02-25, 03:07:04,VALID,998.2,VALID,0,VALID,90.5788,VALID,0,VALID,23.1159,VALID,116,VALID,0.411328,
2011-02-25, 03:08:04,VALID,998.198,VALID,0,VALID,90.5331,VALID,0,VALID,23.0964,VALID,116,VALID,0.742578,
2011-02-25, 03:09:04,VALID,998.197,VALID,0,VALID,90.5331,VALID,0,VALID,23.1159,VALID,116,VALID,0.804688,
2011-02-25, 03:10:04,VALID,998.193,VALID,0,VALID,90.5026,VALID,0,VALID,23.1371,VALID,116,VALID,0.660547,
2011-02-25, 03:11:04,VALID,998.19,VALID,0,VALID,90.4949,VALID,0,VALID,23.1354,VALID,116,VALID,0.542188,
2011-02-25, 03:12:04,VALID,998.187,VALID,0,VALID,90.5026,VALID,0,VALID,23.1354,VALID,116,VALID,0.587891,
2011-02-25, 03:13:04,VALID,998.18,VALID,0,VALID,90.5254,VALID,0,VALID,23.1566,VALID,116,VALID,0.354297,
2011-02-25, 03:14:04,VALID,998.193,VALID,0,VALID,90.4873,VALID,0,VALID,23.1354,VALID,116,VALID,0.371484,
2011-02-25, 03:15:04,VALID,998.154,VALID,0,VALID,90.4949,VALID,0,VALID,23.1566,VALID,116,VALID,0.424609,
2011-02-25, 03:16:04,VALID,998.142,VALID,0,VALID,90.472,VALID,0,VALID,23.1566,VALID,116,VALID,0.312891,
2011-02-25, 03:17:04,VALID,998.129,VALID,0,VALID,90.5026,VALID,0,VALID,23.1566,VALID,116,VALID,0.225,
2011-02-25, 03:18:04,VALID,998.089,VALID,0,VALID,90.472,VALID,0,VALID,23.1354,VALID,116,VALID,0.146875,
2011-02-25, 03:19:04,VALID,998.073,VALID,0,VALID,90.4186,VALID,0,VALID,23.1762,VALID,116,VALID,0.222266,
2011-02-25, 03:20:04,VALID,998.058,VALID,0,VALID,90.3805,VALID,0,VALID,23.1762,VALID,116,VALID,0.171484,
2011-02-25, 03:21:04,VALID,998.057,VALID,0,VALID,90.3347,VALID,0,VALID,23.1549,VALID,116,VALID,0,
2011-02-25, 03:22:04,VALID,998.06,VALID,0,VALID,90.2737,VALID,0,VALID,23.1762,VALID,116,VALID,0,
2011-02-25, 03:23:04,VALID,998.069,VALID,0,VALID,90.3271,VALID,0,VALID,23.1744,VALID,116,VALID,0,
2011-02-25, 03:24:04,VALID,998.12,VALID,0,VALID,90.3576,VALID,0,VALID,23.1744,VALID,116,VALID,0.201562,
2011-02-25, 03:25:04,VALID,998.124,VALID,0,VALID,90.3347,VALID,0,VALID,23.1939,VALID,116,VALID,0.406641,
2011-02-25, 03:26:04,VALID,998.145,VALID,0,VALID,90.3042,VALID,0,VALID,23.1549,VALID,116,VALID,0.454297,
2011-02-25, 03:27:04,VALID,998.182,VALID,0,VALID,90.2203,VALID,0,VALID,23.1549,VALID,116,VALID,0.33125,
2011-02-25, 03:28:04,VALID,998.201,VALID,0,VALID,90.1821,VALID,0,VALID,23.1744,VALID,25,VALID,0.687891,
2011-02-25, 03:29:04,VALID,998.186,VALID,0,VALID,90.2737,VALID,0,VALID,23.1549,VALID,355,VALID,0.78125,
2011-02-25, 03:30:04,VALID,998.172,VALID,0,VALID,90.3728,VALID,0,VALID,23.1354,VALID,355,VALID,0.791016,
2011-02-25, 03:31:04,VALID,998.153,VALID,0,VALID,90.5102,VALID,0,VALID,23.1354,VALID,355,VALID,0.725391,
2011-02-25, 03:32:04,VALID,998.196,VALID,0,VALID,90.6399,VALID,0,VALID,23.1354,VALID,355,VALID,0.649219,
2011-02-25, 03:33:04,VALID,998.199,VALID,0,VALID,90.7238,VALID,0,VALID,23.1159,VALID,355,VALID,0.551562,
2011-02-25, 03:34:04,VALID,998.226,VALID,0,VALID,90.8306,VALID,0,VALID,23.1176,VALID,355,VALID,0.734375,
2011-02-25, 03:35:04,VALID,998.232,VALID,0,VALID,90.9451,VALID,0,VALID,23.0964,VALID,334,VALID,0.935547,
2011-02-25, 03:36:04,VALID,998.26,VALID,0,VALID,91.029,VALID,0,VALID,23.0964,VALID,334,VALID,0.696484,
2011-02-25, 03:37:04,VALID,998.302,VALID,0,VALID,91.1511,VALID,0,VALID,23.0964,VALID,334,VALID,0.602734,
2011-02-25, 03:38:04,VALID,998.329,VALID,0,VALID,91.235,VALID,0,VALID,23.0769,VALID,334,VALID,0.567578,
2011-02-25, 03:39:04,VALID,998.357,VALID,0,VALID,91.3113,VALID,0,VALID,23.0769,VALID,334,VALID,0.770703,
2011-02-25, 03:40:04,VALID,998.319,VALID,0,VALID,91.3723,VALID,0,VALID,23.0769,VALID,334,VALID,1.02422,
2011-02-25, 03:41:04,VALID,998.424,VALID,0,VALID,91.4334,VALID,0,VALID,23.0573,VALID,330,VALID,1.34102,
2011-02-25, 03:42:04,VALID,998.508,VALID,0,VALID,91.4944,VALID,0,VALID,23.0786,VALID,270,VALID,1.43125,
2011-02-25, 03:43:04,VALID,998.563,VALID,0,VALID,91.5326,VALID,0,VALID,23.0769,VALID,268,VALID,1.20234,
2011-02-25, 03:44:04,VALID,998.664,VALID,0,VALID,91.5173,VALID,0,VALID,23.0573,VALID,255,VALID,1.68477,
2011-02-25, 03:45:04,VALID,998.659,VALID,0,VALID,91.4944,VALID,0,VALID,23.1176,VALID,251,VALID,1.23945,
2011-02-25, 03:46:04,VALID,998.743,VALID,0,VALID,91.3952,VALID,0,VALID,23.1957,VALID,237,VALID,3.24336,
2011-02-25, 03:47:04,VALID,998.652,VALID,0,VALID,91.0671,VALID,0,VALID,23.3518,VALID,276,VALID,5.0332,